Regional Weather Roundup
Issued by NWS Nashville, TN

Home | Current Version | Previous Version | Text Only | Print | Product List | Glossary On
Versions: 1 2 3 4 5 6 7 8 9 10 11 12 13 14 15 16 17 18 19 20 21 22 23 24 25 26 27 28 29 30 31 32 33 34 35 36 37 38 39 40 41 42 43 44 45 46 47 48 49 50
000
ASUS44 KOHX 162210
RWROHX
MIDDLE TENNESSEE HOURLY WEATHER ROUNDUP
NATIONAL WEATHER SERVICE NASHVILLE TN
500 PM CDT MON OCT 16 2017

NOTE: "FAIR" INDICATES FEW OR NO CLOUDS BELOW 12,000 FEET WITH
NO SIGNIFICANT WEATHER AND/OR OBSTRUCTIONS TO VISIBILITY.

* THESE REPORTS ARE NOT UNDER NWS QUALITY CONTROL AND MAY NOT
  REPORT WEATHER SUCH AS PRECIPITATION AND FOG.


TNZ005>011-023>034-057-059-062>066-078-080-162300
...NORTHERN MIDDLE TENNESSEE...

CITY           SKY/WX    TMP DP  RH WIND       PRES   REMARKS
CLARKSVILLE    SUNNY     63  38  39 N13       30.28F
CROSSVILLE     MOSUNNY   57  39  51 N8        30.25R
GALLATIN       SUNNY     63  41  45 N12       30.29S
DICKSON          N/A     60  39  45 NE10      30.26F
LEBANON        SUNNY     62  39  42 N10       30.25
NASHVILLE      MOSUNNY   64  40  41 N15       30.26S
PORTLAND       SUNNY     63  41  45 N8        30.26S HAZE
SMYRNA         SUNNY     64  41  42 N14       30.27R
SPARTA         SUNNY     61  41  48 NE7       30.24R
SPRINGFIELD    SUNNY     63  39  42 NE9       30.26S
WEST NASHVILLE SUNNY     63  41  45 N10       30.25S
$$
TNZ056-058-060-061-075>077-079-093>097-162300
...SOUTHERN MIDDLE TENNESSEE...

CITY           SKY/WX    TMP DP  RH WIND       PRES   REMARKS
COLUMBIA       SUNNY     64  39  39 NE10      30.23S
FAYETTEVILLE   SUNNY     63  41  45 N15G21    30.21R
MURFREESBORO   SUNNY     63  40  42 NE13      30.25R
PULASKI        SUNNY     64  43  45 N9G17     30.23R
SHELBYVILLE    SUNNY     63  43  48 N13       30.24R
TULLAHOMA      SUNNY     61  37  41 NE9       30.24R
WINCHESTER     SUNNY     61  43  51 N9          N/A
$$


...KEY TO REMARKS...
VSB - VISIBILITY IN MILES
WCI - WIND CHILL INDEX
HX  - HEAT INDEX




USA.gov is the U.S. government's official web portal to all federal, state and local government web resources and services.